Find Aerocube 16B

NORAD ID: 59291 Int'l Des: 2024-053 Owner: AERO Country: US operational
LEOCIRCULAR

現在のビュー

3D地球を読み込み中...

About Aerocube 16B

Aerocube 16B (NORAD 59291) is a satellite launched Mar 21, 2024 by AERO of US. It operates in LEO, CIRCULAR orbit with a mass of 10.00 kg.

次回通過

Passes for default location (London). Set your location on the main map for personalized predictions.

高度履歴

Loading altitude history...

軌道要素

1 59291U 24053D 26195.54628389 .00008180 00000-0 18150-3 0 9993
2 59291 49.9890 185.7425 0003082 71.6730 288.4569 15.44576018125412
Epoch: Jul 14, 2026 • Age: 6 hours

現在のステータス

高度 433.2 km
遠地点 / 近地点 N/A
速度 7.65 km/s
衛星直下点 -3.25°S, 40.51°W
打ち上げ日 Mar 21, 2024
運用期間 2.3 years
タイプ other

技術仕様

分類 Payload
質量 10.00 kg
乾燥質量 10.00 kg
総質量 10.00 kg
長さ 2.00 m
直径 1.00 m
スパン 5.00 m
形状 Box + pan
製造者 AERO
バスタイプ Cubesat 6U
フェーズステータス In Orbit
所有者/国 AERO/US

Most Searched